Powrót do katalogu

SL-14 DEB

AktywnyPO
NORAD 45337·DEBRIS·🇷🇺 Russia

Wystrzelony Aug 15, 1991 z Plesetsk Cosmodrome

Loading…

Następne Przeloty (najbliższe 24 godziny)

TLE

ŚwieżeSource: Space-Track

Epoka: Sep 14, 2026, 13:02 UTC

1 45337U 91056CB  26257.54346142  .00000815  00000-0  21975-2 0  9994
2 45337  82.5737  95.9458 0042824 110.8889 249.6824 13.13142192313088

Śledź SL-14 DEB w czasie rzeczywistym z AllMySat

Download on the App Store